This demonstration page uses our WeatherBlox Daily Observations layout. Learn more.

Left ArrowRight Arrow

34.16533, -84.80231

Hourly Observations for April 11, 2022

Temp ( °F °C ) Dew Point ( °F °C ) Humidity (%) Winds ( mph kmh ) Pressure ( in mb ) Visibility ( mi km ) Precip ( " mm )
12:15 am 00:15 Mostly Clear 55 13 41 5 59 59 Calm 30.06 1018 10 16 0.00 0.00
12:35 am 00:35 Partly Cloudy 54 12 43 6 67 67 Calm 30.07 1018 10 16 0.00 0.00
12:55 am 00:55 Partly Cloudy 54 12 41 5 63 63 Calm 30.07 1018 10 16 0.00 0.00
1:15 am 01:15 Partly Cloudy 54 12 41 5 63 63 Calm 30.07 1018 10 16 0.00 0.00
1:35 am 01:35 Clear 54 12 43 6 67 67 Calm 30.07 1018 10 16 0.00 0.00
1:55 am 01:55 Clear 54 12 41 5 63 63 Calm 30.07 1018 10 16 0.00 0.00
2:15 am 02:15 Clear 54 12 41 5 63 63 Calm 30.08 1019 10 16 0.00 0.00
2:35 am 02:35 Clear 55 13 41 5 59 59 Calm 30.07 1018 10 16 0.00 0.00
2:55 am 02:55 Clear 50 10 45 7 82 82 Calm 30.09 1019 10 16 0.00 0.00
3:15 am 03:15 Clear 50 10 45 7 82 82 SE 3 6 30.09 1019 10 16 0.00 0.00
3:35 am 03:35 Clear 50 10 43 6 76 76 Calm 30.09 1019 10 16 0.00 0.00
3:55 am 03:55 Clear 48 9 45 7 87 87 Calm 30.09 1019 10 16 0.00 0.00
4:15 am 04:15 Clear 48 9 43 6 82 82 Calm 30.09 1019 10 16 0.00 0.00
4:35 am 04:35 Clear 46 8 45 7 93 93 Calm 30.10 1019 10 16 0.00 0.00
4:55 am 04:55 Clear 46 8 43 6 87 87 Calm 30.11 1019 10 16 0.00 0.00
5:15 am 05:15 Clear 46 8 43 6 87 87 Calm 30.11 1019 10 16 0.00 0.00
5:35 am 05:35 Clear 45 7 43 6 93 93 Calm 30.12 1020 10 16 0.00 0.00
5:55 am 05:55 Clear 45 7 43 6 93 93 E 3 6 30.11 1020 10 16 0.00 0.00
6:15 am 06:15 Clear 45 7 43 6 93 93 Calm 30.11 1020 10 16 0.00 0.00
6:35 am 06:35 Clear 45 7 43 6 93 93 Calm 30.12 1020 10 16 0.00 0.00
6:55 am 06:55 Clear 45 7 43 6 93 93 Calm 30.12 1020 10 16 0.00 0.00
7:15 am 07:15 Sunny 45 7 43 6 93 93 Calm 30.13 1020 10 16 0.00 0.00
7:35 am 07:35 Sunny 45 7 43 6 93 93 Calm 30.14 1021 10 16 0.00 0.00
7:55 am 07:55 Sunny 46 8 45 7 93 93 Calm 30.15 1021 10 16 0.00 0.00
8:15 am 08:15 Sunny 50 10 46 8 88 88 E 6 9 30.15 1021 10 16 0.00 0.00
8:35 am 08:35 Sunny 52 11 46 8 82 82 ENE 7 11 30.15 1021 10 16 0.00 0.00
8:55 am 08:55 Sunny 54 12 46 8 77 77 VRB 5 7 30.14 1021 10 16 0.00 0.00
9:15 am 09:15 Sunny 55 13 48 9 77 77 Calm 30.14 1021 10 16 0.00 0.00
9:35 am 09:35 Sunny 57 14 48 9 72 72 SE 5 7 30.15 1021 10 16 0.00 0.00
9:55 am 09:55 Sunny 59 15 48 9 68 68 Calm 30.17 1022 10 16 0.00 0.00
10:15 am 10:15 Sunny 59 15 48 9 68 68 VRB 3 6 30.21 1023 8 13 0.00 0.00
10:35 am 10:35 Mostly Sunny 59 15 50 10 72 72 W 5 7 30.23 1024 10 16 0.00 0.00
10:55 am 10:55 Partly Cloudy with Light Rain 59 15 50 10 72 72 Calm 30.24 1024 10 16 0.00 0.00
11:15 am 11:15 Mostly Cloudy 61 16 50 10 68 68 Calm 30.22 1023 10 16 0.00 0.00
11:35 am 11:35 Mostly Sunny 61 16 50 10 68 68 Calm 30.21 1023 10 16 0.00 0.00
11:55 am 11:55 Sunny 63 17 52 11 68 68 Calm 30.20 1023 10 16 0.00 0.00
12:15 pm 12:15 Sunny 64 18 52 11 64 64 Calm 30.21 1023 10 16 0.00 0.00
12:35 pm 12:35 Sunny 64 18 54 12 68 68 Calm 30.19 1022 10 16 0.00 0.00
12:55 pm 12:55 Mostly Sunny 64 18 54 12 68 68 VRB 3 6 30.19 1022 10 16 0.00 0.00
1:15 pm 13:15 Partly Cloudy 64 18 54 12 68 68 SSE 7 11 30.17 1022 10 16 0.00 0.00
1:35 pm 13:35 Partly Cloudy 64 18 54 12 68 68 SSE 5 7 30.17 1022 10 16 0.00 0.00
1:55 pm 13:55 Mostly Sunny 66 19 54 12 64 64 Calm 30.15 1021 10 16 0.00 0.00
2:15 pm 14:15 Mostly Cloudy 66 19 54 12 64 64 S 5 7 30.16 1021 10 16 0.00 0.00
2:35 pm 14:35 Cloudy 66 19 54 12 64 64 SW 5 7 30.16 1021 10 16 0.00 0.00
2:55 pm 14:55 Mostly Cloudy 68 20 54 12 60 60 Calm 30.15 1021 10 16 0.00 0.00
3:15 pm 15:15 Partly Cloudy 66 19 54 12 64 64 Calm 30.13 1020 10 16 0.00 0.00
3:35 pm 15:35 Partly Cloudy 68 20 55 13 64 64 W 3 6 30.12 1020 10 16 0.00 0.00
3:55 pm 15:55 Mostly Sunny 68 20 55 13 64 64 VRB 6 9 30.08 1019 10 16 0.00 0.00
4:15 pm 16:15 Partly Cloudy 68 20 55 13 64 64 VRB 6 9 30.08 1019 10 16 0.00 0.00
4:35 pm 16:35 Mostly Cloudy 70 21 55 13 60 60 VRB 7 11 30.06 1018 10 16 0.00 0.00
4:55 pm 16:55 Mostly Cloudy 70 21 54 12 57 57 SSE 14 22 30.06 1018 10 16 0.00 0.00
5:15 pm 17:15 Cloudy 70 21 54 12 57 57 S 9 15 30.05 1018 10 16 0.00 0.00
5:35 pm 17:35 Cloudy 70 21 54 12 57 57 SSE 9 15 30.06 1018 10 16 0.00 0.00
5:55 pm 17:55 Cloudy 70 21 54 12 57 57 S 8 13 30.07 1018 10 16 0.00 0.00
6:15 pm 18:15 Cloudy 70 21 54 12 57 57 S 10 17 30.08 1019 10 16 0.00 0.00
6:35 pm 18:35 Cloudy 68 20 54 12 60 60 S 9 15 30.08 1019 10 16 0.00 0.00
6:55 pm 18:55 Cloudy 68 20 54 12 60 60 SSE 5 7 30.08 1019 10 16 0.00 0.00
7:15 pm 19:15 Mostly Cloudy 68 20 54 12 60 60 SSE 5 7 30.07 1018 10 16 0.00 0.00
7:35 pm 19:35 Mostly Cloudy 68 20 54 12 60 60 SSE 5 7 30.08 1019 10 16 0.00 0.00
7:55 pm 19:55 Partly Cloudy 66 19 54 12 64 64 ESE 5 7 30.07 1018 10 16 0.00 0.00
8:15 pm 20:15 Clear 64 18 54 12 68 68 E 3 6 30.08 1019 10 16 0.00 0.00
8:35 pm 20:35 Clear 64 18 54 12 68 68 ESE 3 6 30.09 1019 10 16 0.00 0.00
8:55 pm 20:55 Clear 63 17 54 12 73 73 E 6 9 30.07 1018 10 16 0.00 0.00
9:15 pm 21:15 Clear 61 16 54 12 77 77 ESE 3 6 30.08 1019 10 16 0.00 0.00
9:35 pm 21:35 Mostly Clear 61 16 54 12 77 77 ESE 3 6 30.08 1019 10 16 0.00 0.00
9:55 pm 21:55 Mostly Cloudy 61 16 54 12 77 77 Calm 30.09 1019 10 16 0.00 0.00
10:15 pm 22:15 Mostly Cloudy 61 16 52 11 72 72 Calm 30.10 1019 10 16 0.00 0.00
10:35 pm 22:35 Mostly Cloudy 59 15 52 11 77 77 E 5 7 30.11 1019 10 16 0.00 0.00
10:55 pm 22:55 Cloudy with Haze 59 15 52 11 77 77 Calm 30.11 1019 6 10 0.00 0.00
11:15 pm 23:15 Cloudy 59 15 52 11 77 77 Calm 30.11 1019 10 16 0.00 0.00
11:35 pm 23:35 Cloudy 59 15 54 12 82 82 Calm 30.11 1019 10 16 0.00 0.00
11:55 pm 23:55 Cloudy 61 16 52 11 72 72 Calm 30.10 1019 10 16 0.00 0.00

Powered by AerisWeather